Drummond Island, MI

7:14 PM EDT on September 25, 2016 (GMT -0400)
Drummond Island

Weather History for KDRM - January, 2014

Change the Weather History Date:

Sunday, January 26, 2014

  Actual Average (KCIU) Record (KCIU)
Temperature  
Mean Temperature -2 °F -  
Max Temperature 5 °F 24 °F 40 °F (1981)
Min Temperature -9 °F 4 °F -18 °F (1997)
Degree Days  
Heating Degree Days 67    
Moisture  
Dew Point -6 °F    
Average Humidity 79    
Maximum Humidity 84    
Minimum Humidity 71    
Precipitation  
Precipitation 0.00 in - - ()
Sea Level Pressure  
Sea Level Pressure 29.43 in    
Wind  
Wind Speed 3 mph (ENE)    
Max Wind Speed 9 mph    
Max Gust Speed -    
Visibility 4 miles    
Events Snow    
Averages and records for this station are not official NWS values.
T = Trace of Precipitation, MM = Missing Value Source: NWS Daily Summary

Daily Weather History Graph

Daily Weather History Graph

Search for Another Location

Airport or City:

Trip Planner

Search our weather history database for the weather conditions in past years. The results will help you decide how hot, cold, wet, or windy it might be!

Date:

Astronomy

Jan. 26, 2014 Rise Set
Actual Time 8:03 AM EST 5:31 PM EST
Civil Twilight 7:31 AM EST 6:04 PM EST
Nautical Twilight 6:55 AM EST 6:40 PM EST
Astronomical Twilight 6:20 AM EST 7:15 PM EST
Moon 3:41 AM EST (1/26) 1:18 PM EST (1/26)
Length of Visible Light 10h 32m
Length of Day
9h 27m
Waning Crescent, 24% of the Moon is Illuminated
Jan 26
Waning Crescent
Jan 30
New
Feb 6
First Quarter
Feb 14
Full
Feb 22
Last Quarter

Hourly Weather History & Observations

Time (EST) Temp. Windchill Dew Point Humidity Pressure Visibility Wind Dir Wind Speed Gust Speed Precip Events Conditions
12:16 AM -5.6 °F - -10.7 °F 79% 29.58 in 4.0 mi Calm Calm - N/A Snow Light Snow
12:37 AM -5.8 °F - -10.3 °F 81% 29.58 in 5.0 mi Calm Calm - N/A Snow Light Snow
12:57 AM -5.1 °F - -9.2 °F 82% 29.57 in 5.0 mi Calm Calm - N/A   Overcast
1:16 AM -4.5 °F - -8.5 °F 83% 29.57 in 7.0 mi Calm Calm - N/A   Overcast
1:37 AM -5.1 °F - -9.4 °F 82% 29.58 in 7.0 mi Calm Calm - N/A   Overcast
1:57 AM -5.8 °F - -10.3 °F 81% 29.58 in 7.0 mi Calm Calm - N/A   Overcast
2:17 AM -5.6 °F - -10.3 °F 80% 29.58 in 7.0 mi Calm Calm - N/A   Overcast
2:37 AM -5.4 °F - -9.8 °F 82% 29.58 in 7.0 mi Calm Calm - N/A   Overcast
2:57 AM -5.8 °F -14.5 °F -10.3 °F 81% 29.57 in 7.0 mi East 3.5 mph - N/A   Overcast
3:17 AM -7.1 °F - -12.5 °F 77% 29.58 in 10.0 mi Calm Calm - N/A   Mostly Cloudy
3:37 AM -7.1 °F - -13.0 °F 75% 29.58 in 10.0 mi Calm Calm - N/A   Mostly Cloudy
3:56 AM -7.1 °F -15.9 °F -13.2 °F 75% 29.57 in 10.0 mi East 3.5 mph - N/A   Overcast
4:17 AM -7.6 °F - -14.1 °F 73% 29.57 in 10.0 mi Calm Calm - N/A   Scattered Clouds
4:37 AM -8.5 °F -17.6 °F -15.5 °F 71% 29.57 in 10.0 mi East 3.5 mph - N/A   Clear
4:56 AM -9.2 °F -20.7 °F -15.9 °F 73% 29.57 in 10.0 mi East 4.6 mph - N/A   Clear
5:17 AM -9.6 °F -21.1 °F -16.1 °F 73% 29.57 in 10.0 mi ESE 4.6 mph - N/A   Clear
5:37 AM -8.7 °F -17.8 °F -15.5 °F 72% 29.57 in 10.0 mi ESE 3.5 mph - N/A   Clear
5:57 AM -8.5 °F -17.6 °F -15.2 °F 73% 29.57 in 10.0 mi East 3.5 mph - N/A   Scattered Clouds
6:17 AM -8.0 °F -16.9 °F -14.8 °F 72% 29.57 in 10.0 mi East 3.5 mph - N/A   Mostly Cloudy
6:36 AM -7.8 °F - -14.8 °F 71% 29.57 in 10.0 mi Calm Calm - N/A   Mostly Cloudy
6:57 AM -7.6 °F - -14.8 °F 71% 29.57 in 10.0 mi Calm Calm - N/A   Overcast
7:17 AM -7.6 °F - -14.1 °F 73% 29.57 in 10.0 mi Calm Calm - N/A   Overcast
7:37 AM -7.2 °F -16.1 °F -13.9 °F 73% 29.56 in 10.0 mi East 3.5 mph - N/A   Overcast
7:57 AM -6.7 °F - -13.4 °F 73% 29.55 in 10.0 mi Calm Calm - N/A   Overcast
8:17 AM -6.2 °F - -13.0 °F 72% 29.53 in 10.0 mi Calm Calm - N/A   Overcast
8:37 AM -5.4 °F -14.1 °F -12.3 °F 72% 29.53 in 7.0 mi East 3.5 mph - N/A   Overcast
8:57 AM -5.1 °F - -11.2 °F 75% 29.52 in 2.5 mi Calm Calm - N/A Snow Light Snow
9:17 AM -4.9 °F - -10.5 °F 77% 29.52 in 5.0 mi Calm Calm - N/A Snow Light Snow
9:37 AM -4.2 °F -12.6 °F -9.8 °F 77% 29.51 in 3.0 mi ENE 3.5 mph - N/A Snow Light Snow
9:57 AM -3.5 °F -13.9 °F -8.5 °F 79% 29.50 in 1.0 mi East 4.6 mph - N/A Snow Light Snow
10:16 AM -2.7 °F - -7.8 °F 79% 29.48 in 1.5 mi Calm Calm - N/A Snow Light Snow
10:37 AM -1.8 °F -9.9 °F -6.9 °F 79% 29.47 in 1.0 mi East 3.5 mph - N/A Snow Light Snow
10:56 AM -1.3 °F -11.4 °F -6.3 °F 79% 29.46 in 1.0 mi East 4.6 mph - N/A Snow Light Snow
11:17 AM -0.2 °F -8.1 °F -5.4 °F 79% 29.45 in 1.2 mi East 3.5 mph - N/A Snow Light Snow
11:37 AM 0.3 °F - -4.9 °F 79% 29.45 in 0.5 mi Calm Calm - N/A Snow Light Snow
11:56 AM 0.5 °F -9.3 °F -4.5 °F 79% 29.45 in 0.8 mi ENE 4.6 mph - N/A Snow Light Snow
12:17 PM 0.5 °F -9.3 °F -4.7 °F 79% 29.44 in 0.8 mi East 4.6 mph - N/A Snow Light Snow
12:37 PM 0.3 °F -9.5 °F -4.9 °F 79% 29.42 in 1.0 mi East 4.6 mph - N/A Snow Light Snow
12:56 PM 0.3 °F -7.5 °F -4.5 °F 80% 29.42 in 0.8 mi ENE 3.5 mph - N/A Snow Light Snow
1:17 PM 0.7 °F -9.1 °F -4.0 °F 81% 29.41 in 0.5 mi East 4.6 mph - N/A Snow Snow
1:37 PM 1.2 °F -8.5 °F -4.0 °F 79% 29.40 in 0.5 mi East 4.6 mph - N/A Snow Light Snow
1:57 PM 1.4 °F -8.3 °F -4.0 °F 78% 29.38 in 1.0 mi East 4.6 mph - N/A Snow Light Snow
2:17 PM 2.1 °F -9.0 °F -3.1 °F 79% 29.35 in 1.0 mi East 5.8 mph - N/A Snow Light Snow
2:37 PM 2.3 °F -7.2 °F -2.6 °F 80% 29.35 in 0.8 mi East 4.6 mph - N/A Snow Light Snow
2:57 PM 2.3 °F -8.8 °F -2.7 °F 79% 29.33 in 1.2 mi ENE 5.8 mph - N/A Snow Light Snow
3:17 PM 2.7 °F -6.8 °F -2.2 °F 80% 29.33 in 1.2 mi East 4.6 mph - N/A Snow Light Snow
3:36 PM 2.7 °F -6.8 °F -2.2 °F 80% 29.33 in 0.8 mi ENE 4.6 mph - N/A Snow Light Snow
3:57 PM 2.7 °F -9.7 °F -2.2 °F 80% 29.32 in 1.2 mi East 6.9 mph - N/A Snow Light Snow
4:17 PM 2.7 °F -8.4 °F -1.8 °F 81% 29.31 in 0.8 mi East 5.8 mph - N/A Snow Light Snow
4:36 PM 2.7 °F -8.4 °F -1.7 °F 82% 29.31 in 0.8 mi East 5.8 mph - N/A Snow Light Snow
4:57 PM 2.8 °F -8.2 °F -1.5 °F 82% 29.31 in 0.8 mi ENE 5.8 mph - N/A Snow Light Snow
5:17 PM 3.2 °F -7.8 °F -0.9 °F 83% 29.30 in 1.2 mi ENE 5.8 mph - N/A Snow Light Snow
5:36 PM 3.9 °F -8.2 °F -0.4 °F 82% 29.30 in 1.0 mi ENE 6.9 mph - N/A Snow Light Snow
5:57 PM 4.5 °F -6.3 °F 0.5 °F 84% 29.30 in 0.8 mi East 5.8 mph - N/A Snow Light Snow
6:17 PM 5.0 °F -4.1 °F 1.2 °F 84% 29.30 in 1.0 mi East 4.6 mph - N/A Snow Light Snow
6:37 PM 5.4 °F -5.2 °F 1.4 °F 84% 29.30 in 1.2 mi East 5.8 mph - N/A Snow Light Snow
6:57 PM 5.4 °F -6.5 °F 1.4 °F 84% 29.30 in 1.0 mi East 6.9 mph - N/A Snow Light Snow
7:17 PM 5.0 °F -8.1 °F 1.2 °F 84% 29.29 in 1.2 mi East 8.1 mph - N/A Snow Light Snow
7:37 PM 4.5 °F -8.7 °F 0.3 °F 83% 29.28 in 1.5 mi East 8.1 mph - N/A Snow Light Snow
7:57 PM 4.1 °F -8.0 °F -0.0 °F 83% 29.28 in 1.8 mi East 6.9 mph - N/A Snow Light Snow
8:16 PM 4.1 °F -10.2 °F -0.4 °F 82% 29.28 in 1.8 mi ENE 9.2 mph - N/A Snow Light Snow
8:37 PM 3.7 °F -8.4 °F -0.6 °F 82% 29.28 in 1.2 mi East 6.9 mph - N/A Snow Light Snow
8:57 PM 3.7 °F -10.6 °F -0.6 °F 82% 29.28 in 1.2 mi ENE 9.2 mph - N/A Snow Light Snow
9:16 PM 3.6 °F -5.7 °F -0.8 °F 82% 29.28 in 1.2 mi ENE 4.6 mph - N/A Snow Light Snow
9:37 PM 3.2 °F -11.3 °F -1.3 °F 82% 29.28 in 2.0 mi ENE 9.2 mph - N/A Snow Light Snow
9:57 PM 2.8 °F -4.6 °F -1.7 °F 81% 29.28 in 2.5 mi NNE 3.5 mph - N/A Snow Light Snow
10:16 PM 2.7 °F -8.4 °F -1.3 °F 84% 29.28 in 7.0 mi NNE 5.8 mph - N/A Snow Light Snow
10:37 PM 3.2 °F -6.2 °F -0.9 °F 83% 29.28 in 7.0 mi North 4.6 mph - N/A Snow Light Snow
10:57 PM 3.2 °F -6.2 °F -0.9 °F 83% 29.29 in 2.5 mi North 4.6 mph - N/A Snow Light Snow
11:17 PM 3.2 °F -7.8 °F -0.6 °F 84% 29.30 in 4.0 mi North 5.8 mph - N/A Snow Light Snow
11:37 PM 3.6 °F -8.7 °F -0.4 °F 84% 29.31 in 3.0 mi North 6.9 mph - N/A Snow Light Snow
11:57 PM 3.6 °F -7.3 °F -0.4 °F 84% 29.32 in 3.0 mi North 5.8 mph - N/A Snow Light Snow